SHELL BYPASS 403 |
Modern UI. Responsive. Powerful.

Faizzz-Chin Shell

: /proc/thread-self/root/usr/share/man/ja/man8/ [ drwxr-xr-x ]
Uname\Kernel: Linux server234.web-hosting.com 4.18.0-513.18.1.lve.el8.x86_64 #1 SMP Thu Feb 22 12:55:50 UTC 2024 x86_64
Server: LiteSpeed
PHP Version: 8.3.30 [ PHP INFO ]
Operating System: Linux
Server Ip: 172.67.152.218
Your Ip: 216.73.217.61
Date Time: 2026-05-10 03:52:21
User: repauqkb (12019) | Group: repauqkb (11967)
Safe Mode: OFF
Disable Function: NONE
Name Last Edit Size Owner:Group Permission Options
..
accessdb.8.gz 2021-10-08 20:04:13 876 B root:root -rw-r--r--
adduser.8.gz 2025-12-18 20:51:02 39 B root:root -rw-r--r--
authselect.8.gz 2023-10-15 01:06:29 5.59 KB root:root -rw-r--r--
catman.8.gz 2021-10-08 20:04:13 1.79 KB root:root -rw-r--r--
chpasswd.8.gz 2018-04-29 23:42:37 1.85 KB root:root -rw-r--r--
groupadd.8.gz 2018-04-29 23:42:37 1.68 KB root:root -rw-r--r--
groupdel.8.gz 2018-04-29 23:42:37 1.52 KB root:root -rw-r--r--
groupmod.8.gz 2018-04-29 23:42:37 1.68 KB root:root -rw-r--r--
grpck.8.gz 2018-04-29 23:42:37 2.33 KB root:root -rw-r--r--
grpconv.8.gz 2018-04-29 23:42:37 38 B root:root -rw-r--r--
grpunconv.8.gz 2018-04-29 23:42:37 38 B root:root -rw-r--r--
lastlog.8.gz 2018-04-29 23:42:37 1.97 KB root:root -rw-r--r--
mandb.8.gz 2021-10-08 20:04:13 3.19 KB root:root -rw-r--r--
newusers.8.gz 2018-04-29 23:42:37 1.83 KB root:root -rw-r--r--
pwck.8.gz 2018-04-29 23:42:37 2.35 KB root:root -rw-r--r--
pwconv.8.gz 2018-04-29 23:42:37 1.3 KB root:root -rw-r--r--
pwunconv.8.gz 2018-04-29 23:42:37 38 B root:root -rw-r--r--
rpm.8.gz 2024-12-17 11:11:01 10.5 KB root:root -rw-r--r--
rpm2cpio.8.gz 2024-12-17 11:11:01 1018 B root:root -rw-r--r--
rpmbuild.8.gz 2024-12-17 11:11:01 3.89 KB root:root -rw-r--r--
rpmgraph.8.gz 2024-12-17 11:11:01 1.6 KB root:root -rw-r--r--
useradd.8.gz 2018-04-29 23:42:37 3.16 KB root:root -rw-r--r--
userdel.8.gz 2018-04-29 23:42:37 1.8 KB root:root -rw-r--r--
usermod.8.gz 2018-04-29 23:42:37 2.93 KB root:root -rw-r--r--
vigr.8.gz 2018-04-29 23:42:37 36 B root:root -rw-r--r--
vipw.8.gz 2018-04-29 23:42:37 694 B root:root -rw-r--r--
© 2026 Faizzz-Chin